[Iaude] MPEC E114: 2000 CM104 [a=44.04,e=0.08,i=0.9,H=7.48]

mpec at marsden.cfa.harvard.edu mpec at marsden.cfa.harvard.edu
Mon Mar 7 14:45:54 EST 2022


M.P.E.C. 2022-E114                                Issued 2022 March 7, 19:43 UT

     The Minor Planet Electronic Circulars contain information on unusual
         minor planets and routine data on comets.  They are published
    on behalf of Division F of the International Astronomical Union by the
          Minor Planet Center, Smithsonian Astrophysical Observatory,
                          Cambridge, MA 02138, U.S.A.

             Prepared using the Tamkin Foundation Computer Network

                              MPC at CFA.HARVARD.EDU
            URL https://www.minorplanetcenter.net/    ISSN 1523-6714

                                   2000 CM104                                   


Additional Observations:
     K00CA4M OC2000 12 21.64373310 20 08.88 +10 25 08.5          23.8 rVEE114568
     K00CA4M OC2000 12 22.59385210 20 07.31 +10 25 18.0          23.6 rVEE114568
     K00CA4M OC2003 12 23.49103810 35 16.74 +09 01 17.2          23.6 rVEE114568
     K00CA4M OC2003 12 23.54279810 35 16.66 +09 01 17.8          23.7 rVEE114568
     K00CA4M OC2003 12 23.59371410 35 16.61 +09 01 18.0                VEE114568

Observer details:
568 Mauna Kea.  Observer .  Measurer S. Deen.  3.58-m Canada-France-Hawaii
    Telescope + CCD.

Orbital elements:
2000 CM104                                                                      
Epoch 2022 Jan. 21.0 TT = JDT 2459600.5                 Alexandersen            
M  86.15822              (2000.0)            P               Q                  
n   0.00337263     Peri.  294.34594     +0.11600570     -0.99321478             
a  44.0375635      Node   148.98901     +0.91695205     +0.10392169             
e   0.0812420      Incl.    0.91088     +0.38176119     +0.05219854             
P 292              H    7.48          G   0.15           U   5                  
Residuals in seconds of arc
000205 695  0.2-  0.1+    000227 695  0.0   0.1+    031223 568  0.1-  0.0
000205 695  0.3+  0.1+    001221 568  0.3-  0.3-    031223 568  0.1-  0.2+
000227 695  0.1+  0.1+    001222 568  0.1+  0.2-    031223 568  0.2+  0.1-

Ephemeris:
2000 CM104               a,e,i = 44.04, 0.08, 1                  q = 40.4599
Date    TT    R. A. (2000) Decl.     Delta      r    Elong.  Phase     V
2022 02 05    11 59 46.5 +00 31 37  43.3756 44.0914   136.1     0.9    24.0
...
2022 02 20    11 58 57.2 +00 37 07  43.2233 44.0946   151.5     0.6    24.0
...
2022 02 28    11 58 26.6 +00 40 30  43.1660 44.0962   159.7     0.4    24.0
...
2022 03 06    11 58 02.2 +00 43 11  43.1351 44.0975   165.8     0.3    24.0
2022 03 07    11 57 58.1 +00 43 38  43.1310 44.0977   166.8     0.3    23.9
2022 03 08    11 57 53.9 +00 44 05  43.1272 44.0979   167.9     0.3    23.9
...
2022 03 14    11 57 28.6 +00 46 52  43.1106 44.0992   174.0     0.1    23.9
...
2022 03 22    11 56 54.3 +00 50 37  43.1054 44.1009   177.9     0.0    23.9
...
2022 04 06    11 55 51.1 +00 57 29  43.1473 44.1040   162.8     0.4    24.0

M. P. C. Staff               (C) Copyright 2022 MPC           M.P.E.C. 2022-E114




More information about the Iaude mailing list